WESTFORD NEEDLES, 3255

Orbit data source: Space-Track

WESTFORD NEEDLES, 3255 is space debris in LEO originally from a launch on Thu, 09 May 1963 UTC launched from the Air Force Western Test Range (AFWTR). Debris objects in space refer to the collection of defunct objects orbiting the Earth. Examples of debris include non-operational satellites, rocket bodies, and fragments generated from explosions, collisions, or faulty payload assembly.

Loading next visibility...
Identifier
3255, 1963-014BV
Orbit
LEO
Country
Flag of USUS
Related business
Manufacturer
Unknown
Mission
Spacecraft
Bus & Motor
Unknown
Mass
Unknown
Launch date (UTC)
1963-05-09 (63 years ago)
Launch vehicle
Unknown
Launch site
Air Force Western Test Range (AFWTR)
Object type
Payload
Rocket body
Debris
Shape & HBR
Unknown shape, 1.1 m
Radar Cross Section
Medium (>0.1 m² and <1 m²)

Expand to show TLE details & history
Last TLE update: 3 days ago

TLE from 3 days ago
0 WESTFORD NEEDLES
1 03255U 63014BV  26148.02174628  .00000073  00000-0  32056-1 0  9997
2 03255  87.3558 171.1692 0151424 208.4944 150.7568  8.66796767379674
Epoch: 2026-05-28T00:31Z
TLE epoch observation values (Epoch: 2026-05-28T00:31:18.878Z)
Latitude
0.00003°
Longitude
-82.23191°
Altitude
3,767.396 km
Speed
6.227 km/s
True Right ascension
11h 24m 40s
True Declination
0° 00' 00"
Sunlit
Object was in daylight at epoch
Visualization orbit readout
Latitude
Unknown
Longitude
Unknown
Altitude
Unknown
Speed
Unknown
Apparent Right ascension
Unknown
Apparent Declination
Unknown
Sunlit
N/A
Visualization observer readout
Local Sidereal Time
03:46:31
Azimuth
Unknown
Elevation
Unknown
Doppler factor
Unknown
Orbital elements
Apogee altitude
3,781.761 km
Perigee altitude
3,478.661 km
Semi-major axis
10,008.348 km
Eccentricity
0.01514
Inclination
87.3558°
RAAN
171.1692°
Arg. of periapsis
208.4944°
True anomaly
151.59066°
Mean anomaly
150.7568°
Eccentric anomaly
151.1751°
Mean motion
2.1677 °/min
Orbital period
166.07 mins
BSTAR
0.032056
Loading maneuver chart data...
Computing Atmospheric mass density...

Documentation

Showing up to 5 results
|